Location: Newark
(40.4667°N, 5.6000°W)
Time: 05:42:19
(UTC+00:00)

Transit 2A - All Passes

Search period start: 18 November 2019 00:00
Search period end: 28 November 2019 00:00
Orbit: 601 x 957 km, 66.7° (Epoch: 16 November)

Date Brightness Start Highest point End Pass type
(mag) Time Alt. Az. Time Alt. Az. Time Alt. Az.
18 Nov - 12:25:24 10° SSW 12:30:35 80° ESE 12:35:19 10° NNE daylight
18 Nov - 14:11:29 10° W 14:14:12 15° NW 14:16:49 10° N daylight
18 Nov - 21:12:18 10° NNW 21:16:34 53° ENE 21:21:00 10° SE night (unlit)
18 Nov - 22:56:55 10° WNW 22:59:16 14° WSW 23:01:40 10° SW night (unlit)
19 Nov - 11:51:28 10° S 11:56:31 52° ESE 12:01:06 10° NE daylight
19 Nov - 13:36:11 10° W 13:39:52 20° NW 13:43:21 10° N daylight
19 Nov - 20:38:23 10° NNW 20:42:23 35° NE 20:46:31 10° ESE night (unlit)
19 Nov - 22:21:53 10° WNW 22:25:18 22° WSW 22:28:51 10° SSW night (unlit)
20 Nov - 11:17:48 10° S 11:22:27 34° ESE 11:26:44 10° NE daylight
20 Nov - 13:01:16 10° WSW 13:05:36 29° NW 13:09:38 10° N daylight
20 Nov - 20:04:35 10° N 20:08:09 24° NE 20:11:47 10° ESE visible
20 Nov - 21:47:19 10° NW 21:51:19 35° WSW 21:55:28 10° S night (unlit)
21 Nov - 10:44:28 10° SSE 10:48:27 23° ESE 10:52:10 10° ENE daylight
21 Nov - 12:26:36 10° SW 12:31:23 41° NW 12:35:47 10° NNE daylight
21 Nov - 19:31:00 10° N 19:33:50 17° NE 19:36:44 10° E visible
21 Nov - 21:12:59 10° NW 21:17:16 55° WSW 21:21:45 10° SSE night (unlit)
22 Nov - 10:11:40 10° SE 10:14:29 15° ESE 10:17:10 10° ENE daylight
22 Nov - 11:52:10 10° SW 11:57:13 62° WNW 12:01:50 10° NNE daylight
22 Nov - 18:57:52 10° NNE 18:59:27 12° NE 19:01:05 10° ENE visible
22 Nov - 20:38:48 10° NNW 20:43:11 88° WSW 20:47:47 10° SSE night (unlit)
23 Nov - 11:17:58 10° SSW 11:23:05 87° ESE 11:27:46 10° NNE daylight
23 Nov - 13:04:25 10° WNW 13:06:46 13° NW 13:09:03 10° NNW daylight
23 Nov - 20:04:45 10° NNW 20:09:04 59° ENE 20:13:35 10° SE visible
23 Nov - 21:49:40 10° W 21:51:43 13° WSW 21:53:49 10° SW night (unlit)
24 Nov - 10:43:59 10° SSW 10:49:00 57° ESE 10:53:35 10° NE daylight
24 Nov - 12:28:59 10° W 12:32:25 19° NW 12:35:41 10° N daylight
24 Nov - 19:30:48 10° NNW 19:34:54 38° NE 19:39:08 10° SE visible
24 Nov - 21:14:29 10° WNW 21:17:47 21° WSW 21:21:11 10° SSW night (unlit)
25 Nov - 10:10:16 10° S 10:14:57 37° ESE 10:19:16 10° NE daylight
25 Nov - 11:53:58 10° WSW 11:58:07 26° NW 12:02:01 10° N daylight
25 Nov - 18:56:59 10° N 19:00:40 26° NE 19:04:27 10° ESE visible
25 Nov - 20:39:51 10° NW 20:43:47 32° WSW 20:47:53 10° S visible
26 Nov - 09:36:51 10° SSE 09:40:55 24° ESE 09:44:44 10° ENE daylight
26 Nov - 11:19:16 10° WSW 11:23:53 38° NW 11:28:12 10° NNE daylight
26 Nov - 18:23:19 10° N 18:26:22 18° NE 18:29:29 10° E visible
26 Nov - 20:05:29 10° NW 20:09:45 50° WSW 20:14:14 10° S visible
27 Nov - 09:03:55 10° SE 09:06:57 16° ESE 09:09:50 10° ENE daylight
27 Nov - 10:44:47 10° SW 10:49:43 57° WNW 10:54:16 10° NNE daylight
27 Nov - 17:50:02 10° NNE 17:52:01 13° NE 17:54:01 10° ENE visible
27 Nov - 19:31:16 10° NNW 19:35:40 81° WSW 19:40:18 10° SSE visible
